Home   Weather   Kallithea   Past weeks

Flag for Greece Past Weather in Kallithea, Greece — Yesterday and Last 2 Weeks

Now
63 °F

Clear.


Feels Like: 63 °F
Forecast: 56 / 77 °F
Wind: No wind

Location: Elefsis Airport

Current Time: Apr 28, 2017 at 11:12:52 pm

Latest Report: Apr 28, 2017 at 9:50 pm


Visibility: 10 mi

Pressure: 29.98 "Hg

Humidity: 34%

Dew Point: 34 °F

Location of KallitheaLocation

Past Weather in Kallithea — Graph

°F

Kallithea Temperature Yesterday

Maximum temperature yesterday: 79 °F (at 1:20 pm)
Minimum temperature yesterday: 48 °F (at 5:50 am)
Average temperature yesterday: 64 °F

High & Low Weather Summary for the Past Weeks

 TemperatureHumidityPressure
High79 °F (Apr 27, 1:20 pm)94% (Apr 18, 12:50 am)30.21 "Hg (Apr 18, 12:50 am)
Low43 °F (Apr 23, 3:50 am)20% (Apr 20, 5:20 pm)29.74 "Hg (Apr 17, 3:50 pm)
Average61 °F54%29.99 "Hg
* Reported Apr 13 8:20 pm — Apr 28 8:50 pm, Kallithea, Weather by CustomWeather, © 2017

Note: Actual official high and low records may vary slightly from our data, if they occured in-between our weather recording intervals... More about our weather records

Advertising

Kallithea Weather History for the Previous 24 Hours

Scroll right to see more
 ConditionsComfort  
Time TempWeatherWind HumidityBarometerVisibility
8:50 pm
Fri, Apr 28
66 °FClear.5 mph32%29.95 "Hg10 mi
8:20 pm66 °FClear.5 mph32%29.95 "Hg10 mi
7:50 pm70 °FSunny.5 mph31%29.95 "Hg10 mi
7:20 pm72 °FSunny.5 mph27%29.95 "Hg10 mi
6:50 pm73 °FSunny.6 mph25%29.95 "Hg10 mi
6:20 pm75 °FSunny.5 mph24%29.95 "Hg10 mi
5:50 pm75 °FSunny.7 mph22%29.95 "Hg10 mi
5:20 pm77 °FSunny.6 mph21%29.95 "Hg10 mi
4:50 pm77 °FSunny.8 mph22%29.95 "Hg10 mi
4:20 pm77 °FSunny.8 mph22%29.95 "Hg10 mi
3:50 pm77 °FSunny.9 mph24%29.95 "Hg10 mi
3:20 pm79 °FSunny.8 mph23%29.98 "Hg10 mi
2:50 pm79 °FSunny.8 mph24%29.98 "Hg10 mi
2:20 pm77 °FSunny.8 mph28%29.98 "Hg10 mi
1:50 pm77 °FSunny.8 mph28%29.98 "Hg10 mi
1:20 pm77 °FSunny.7 mph28%30.01 "Hg10 mi
12:50 pm77 °FSunny.6 mph30%30.01 "Hg10 mi
12:20 pm75 °FSunny.5 mph27%30.01 "Hg10 mi
11:50 am75 °FSunny.5 mph27%30.01 "Hg10 mi
11:20 am75 °FSunny.3 mph29%30.01 "Hg10 mi
10:20 am73 °FSunny.No wind29%30.01 "Hg10 mi
9:50 am70 °FSunny.No wind33%30.01 "Hg10 mi
9:20 am70 °FSunny.No wind33%30.01 "Hg10 mi
8:50 am66 °FSunny.No wind37%30.01 "Hg10 mi
8:20 am64 °FSunny.No wind43%30.01 "Hg10 mi
7:50 am59 °FSunny.2 mph51%30.01 "Hg10 mi
7:20 am55 °FSunny.No wind59%30.01 "Hg10 mi
6:50 am52 °FSunny.No wind67%30.01 "Hg10 mi
6:20 am54 °FClear.No wind63%30.01 "Hg10 mi
5:50 am52 °FClear.No wind67%29.98 "Hg10 mi
5:20 am54 °FClear.No wind63%30.01 "Hg10 mi
4:50 am54 °FClear.No wind63%30.01 "Hg10 mi
4:20 am54 °FClear.No wind63%30.01 "Hg10 mi
3:50 am55 °FClear.No wind59%30.01 "Hg10 mi
3:20 am57 °FClear.No wind55%30.01 "Hg10 mi
2:50 am55 °FClear.No wind59%29.98 "Hg10 mi
2:20 am55 °FClear.No wind59%30.01 "Hg10 mi
1:50 am59 °FClear.No wind51%30.04 "Hg10 mi
1:20 am57 °FClear.No wind55%30.04 "Hg10 mi
12:50 am59 °FClear.No wind51%30.04 "Hg10 mi
12:20 am59 °FClear.No wind51%30.04 "Hg10 mi
11:50 pm
Thu, Apr 27
59 °FClear.No wind55%30.04 "Hg10 mi
11:20 pm59 °FClear.No wind51%30.04 "Hg10 mi
Weather by CustomWeather, © 2017

See weather overviewHow to use our weather pages